QPF
0.00 0.00 0.00 0.00 0.00 0.00 0.00 0.00 0.00 0.00 0.00 0.00 0.00 0.00 0.00 0.00 0.00 0.00 0.00 0.00 0.00 0.00 0.00 0.00 0.00 0.00 0.00 0.00 0.00 0.00 0.00 0.00 0.00 0.00 0.00 0.00 0.00 0.00 0.00 0.00 0.00 0.00 0.00 0.00
0.00 0.00 0.00 0.00 0.00 0.00 0.00 0.00 0.00 0.00 0.00 0.00 0.00 0.00 0.00 0.00 0.00 0.00 0.00 0.00 0.00 0.00 0.00 0.00 0.00 0.00 0.00 0.00 0.00 0.00 0.00 0.00 0.00 0.00 0.00 0.00 0.00 0.00 0.00 0.00 0.00 0.00 0.00 0.00
0.00 0.00 0.00 0.00 0.00 0.00 0.00 0.00 0.00 0.00 0.00 0.00 0.00 0.00 0.00 0.00 0.00 0.00 0.00 0.00 0.00 0.00 0.00 0.00 0.00 0.00 0.00 0.00 0.00 0.00 0.00 0.00 0.00 0.00 0.00 0.00 0.00 0.00 0.00 0.00 0.00 0.00 0.00 0.00
0.00 0.00 0.00 0.00 0.00 0.00 0.00 0.00 0.00 0.00 0.00 0.00 0.00 0.00 0.00 0.00 0.00 0.00 0.00 0.00 0.00 0.00 0.00 0.00 0.00 0.00 0.00 0.00 0.00 0.00 0.00 0.00 0.00 0.00 0.00 0.00 0.00 0.00 0.00 0.00 0.00 0.00 0.00 0.00
0.00 0.00 0.00 0.00 0.00 0.00 0.00 0.00 0.00 0.00 0.00 0.00 0.00 0.00 0.00 0.00 0.00 0.00 0.00 0.00 0.00 0.00 0.00 0.00 0.00 0.00 0.00 0.00 0.00 0.00 0.00 0.00 0.00 0.00 0.00 0.00 0.00 0.00 0.00 0.00 0.00 0.00 0.00 0.00
0.01 0.00 0.00 0.00 0.00 0.00 0.00 0.00 0.00 0.00 0.00 0.00 0.00 0.00 0.00 0.00 0.00 0.00 0.00 0.00 0.00 0.00 0.00 0.00 0.00 0.00 0.00 0.00 0.00 0.00 0.00 0.00 0.00 0.00 0.00 0.00 0.00 0.00 0.00 0.00 0.00 0.00 0.00 0.00
0.02 0.01 0.00 0.00 0.00 0.00 0.00 0.00 0.00 0.00 0.00 0.00 0.00 0.00 0.00 0.00 0.00 0.00 0.00 0.00 0.00 0.00 0.00 0.00 0.00 0.00 0.00 0.00 0.00 0.00 0.00 0.00 0.00 0.00 0.00 0.00 0.00 0.00 0.00 0.00 0.00 0.00 0.00 0.00
0.01 0.01 0.00 0.00 0.00 0.00 0.00 0.00 0.00 0.00 0.00 0.00 0.00 0.00 0.00 0.00 0.00 0.00 0.00 0.00 0.00 0.00 0.00 0.00 0.00 0.00 0.01 0.01 0.00 0.00 0.00 0.00 0.00 0.00 0.00 0.00 0.00 0.00 0.00 0.00 0.00 0.00 0.00 0.00
0.00 0.00 0.00 0.00 0.00 0.00 0.00 0.00 0.00 0.00 0.00 0.00 0.00 0.00 0.00 0.00 0.00 0.00 0.00 0.00 0.00 0.00 0.00 0.00 0.00 0.00 0.01 0.01 0.01 0.01 0.01 0.00 0.00 0.00 0.00 0.00 0.00 0.00 0.00 0.00 0.00 0.00 0.00 0.00
0.01 0.00 0.00 0.00 0.00 0.00 0.00 0.00 0.00 0.00 0.00 0.00 0.00 0.00 0.00 0.00 0.00 0.01 0.01 0.00 0.00 0.01 0.01 0.01 0.01 0.01 0.01 0.01 0.01 0.01 0.01 0.01 0.01 0.00 0.00 0.00 0.00 0.00 0.00 0.00 0.00 0.00 0.00 0.00
0.03 0.02 0.01 0.01 0.00 0.01 0.00 0.00 0.00 0.00 0.00 0.01 0.01 0.00 0.00 0.00 0.01 0.01 0.01 0.01 0.01 0.01 0.01 0.02 0.02 0.02 0.03 0.02 0.02 0.02 0.02 0.02 0.01 0.01 0.01 0.00 0.00 0.00 0.00 0.00 0.00 0.00 0.00 0.00
0.03 0.02 0.01 0.01 0.01 0.01 0.01 0.00 0.00 0.00 0.00 0.01 0.01 0.01 0.01 0.01 0.00 0.00 0.00 0.00 0.01 0.01 0.02 0.02 0.02 0.02 0.02 0.03 0.02 0.02 0.02 0.02 0.02 0.02 0.01 0.01 0.01 0.00 0.00 0.00 0.01 0.00 0.00 0.00
0.01 0.00 0.00 0.00 0.00 0.00 0.00 0.00 0.00 0.00 0.01 0.01 0.01 0.01 0.01 0.01 0.01 0.00 0.00 0.00 0.00 0.01 0.01 0.01 0.02 0.02 0.02 0.02 0.02 0.02 0.02 0.02 0.02 0.02 0.01 0.01 0.01 0.01 0.01 0.01 0.01 0.01 0.01 0.00
0.00 0.00 0.00 0.00 0.00 0.00 0.00 0.01 0.01 0.01 0.02 0.02 0.01 0.01 0.01 0.01 0.01 0.00 0.00 0.00 0.00 0.00 0.00 0.00 0.01 0.01 0.02 0.02 0.02 0.02 0.02 0.02 0.02 0.02 0.01 0.01 0.01 0.01 0.01 0.01 0.01 0.01 0.01 0.01
0.01 0.01 0.01 0.01 0.00 0.00 0.00 0.00 0.00 0.00 0.00 0.00 0.01 0.01 0.01 0.01 0.00 0.00 0.00 0.00 0.00 0.00 0.01 0.01 0.00 0.01 0.01 0.01 0.01 0.02 0.02 0.02 0.02 0.02 0.02 0.02 0.02 0.02 0.01 0.01 0.01 0.01 0.01 0.01
0.01 0.01 0.01 0.01 0.01 0.00 0.01 0.01 0.01 0.01 0.01 0.01 0.01 0.01 0.01 0.01 0.01 0.00 0.00 0.00 0.00 0.00 0.01 0.01 0.01 0.01 0.01 0.01 0.01 0.01 0.02 0.03 0.03 0.03 0.03 0.03 0.03 0.03 0.02 0.02 0.02 0.01 0.01 0.01
0.02 0.02 0.01 0.02 0.01 0.01 0.01 0.02 0.02 0.02 0.02 0.01 0.01 0.01 0.01 0.01 0.00 0.00 0.00 0.00 0.00 0.00 0.00 0.01 0.01 0.01 0.01 0.01 0.01 0.01 0.01 0.02 0.03 0.03 0.02 0.02 0.03 0.03 0.03 0.02 0.02 0.02 0.01 0.02
0.02 0.02 0.02 0.02 0.02 0.02 0.03 0.03 0.02 0.02 0.02 0.02 0.01 0.01 0.01 0.01 0.01 0.00 0.00 0.00 0.00 0.00 0.00 0.00 0.01 0.01 0.01 0.01 0.01 0.01 0.01 0.01 0.01 0.02 0.02 0.03 0.03 0.03 0.03 0.03 0.02 0.02 0.01 0.02
0.01 0.01 0.02 0.02 0.02 0.02 0.02 0.03 0.02 0.02 0.02 0.02 0.01 0.01 0.01 0.01 0.01 0.00 0.00 0.00 0.00 0.00 0.00 0.00 0.00 0.00 0.00 0.00 0.01 0.01 0.01 0.01 0.01 0.01 0.02 0.03 0.03 0.03 0.02 0.02 0.02 0.02 0.02 0.02
0.01 0.01 0.01 0.01 0.02 0.02 0.02 0.03 0.02 0.02 0.02 0.01 0.01 0.01 0.01 0.01 0.01 0.00 0.00 0.00 0.00 0.00 0.00 0.00 0.00 0.00 0.01 0.01 0.01 0.01 0.01 0.01 0.01 0.01 0.02 0.02 0.03 0.03 0.02 0.02 0.02 0.03 0.03 0.03
0.01 0.01 0.01 0.02 0.02 0.02 0.02 0.02 0.02 0.02 0.01 0.01 0.01 0.01 0.01 0.01 0.01 0.01 0.01 0.00 0.00 0.00 0.00 0.00 0.00 0.00 0.01 0.01 0.01 0.01 0.01 0.01 0.01 0.02 0.02 0.02 0.03 0.03 0.03 0.03 0.03 0.03 0.03 0.03
0.01 0.01 0.01 0.02 0.02 0.02 0.02 0.02 0.02 0.02 0.02 0.01 0.01 0.01 0.01 0.01 0.01 0.01 0.00 0.00 0.00 0.00 0.00 0.00 0.00 0.00 0.01 0.01 0.01 0.01 0.01 0.01 0.02 0.02 0.02 0.02 0.02 0.02 0.02 0.03 0.03 0.03 0.03 0.03
0.01 0.01 0.01 0.02 0.02 0.02 0.01 0.01 0.02 0.02 0.02 0.02 0.02 0.01 0.01 0.01 0.01 0.01 0.01 0.00 0.00 0.00 0.00 0.00 0.00 0.01 0.01 0.01 0.01 0.01 0.01 0.01 0.01 0.02 0.02 0.02 0.02 0.02 0.02 0.02 0.02 0.02 0.02 0.03
0.00 0.01 0.01 0.02 0.02 0.02 0.02 0.02 0.02 0.01 0.01 0.01 0.01 0.01 0.01 0.01 0.01 0.01 0.00 0.00 0.00 0.00 0.00 0.00 0.01 0.01 0.01 0.01 0.01 0.01 0.01 0.01 0.01 0.01 0.01 0.02 0.02 0.02 0.02 0.02 0.02 0.02 0.02 0.02
0.00 0.01 0.01 0.02 0.02 0.02 0.02 0.02 0.02 0.02 0.01 0.01 0.01 0.01 0.01 0.01 0.01 0.00 0.00 0.00 0.00 0.00 0.00 0.00 0.00 0.01 0.01 0.01 0.01 0.01 0.01 0.01 0.01 0.01 0.01 0.01 0.01 0.02 0.02 0.02 0.02 0.02 0.02 0.01
0.00 0.00 0.01 0.01 0.01 0.01 0.01 0.01 0.01 0.01 0.01 0.01 0.01 0.01 0.01 0.01 0.00 0.00 0.00 0.00 0.00 0.00 0.00 0.00 0.00 0.00 0.00 0.01 0.01 0.01 0.01 0.01 0.01 0.01 0.01 0.01 0.02 0.02 0.02 0.02 0.02 0.02 0.01 0.01
0.00 0.00 0.00 0.01 0.01 0.01 0.01 0.01 0.01 0.01 0.01 0.01 0.01 0.01 0.01 0.01 0.01 0.00 0.00 0.00 0.00 0.00 0.00 0.00 0.00 0.00 0.00 0.00 0.00 0.00 0.00 0.01 0.01 0.01 0.01 0.01 0.01 0.02 0.02 0.02 0.01 0.01 0.01 0.01
MSLP
1016.56 1016.65 1016.71 1016.73 1016.70 1016.61 1016.43 1016.19 1015.88 1015.52 1015.14 1014.75 1014.39 1014.07 1013.81 1013.61 1013.50 1013.45 1013.49 1013.62 1013.83 1014.14 1014.54 1015.04 1015.63 1016.29 1017.00 1017.73 1018.43 1019.09 1019.68 1020.18 1020.58 1020.90 1021.14 1021.34 1021.50 1021.66 1021.81 1021.95 1022.09 1022.21 1022.30 1022.35
1016.65 1016.70 1016.73 1016.71 1016.64 1016.50 1016.30 1016.03 1015.70 1015.32 1014.92 1014.51 1014.13 1013.78 1013.48 1013.24 1013.08 1013.00 1013.00 1013.09 1013.29 1013.60 1014.02 1014.55 1015.17 1015.88 1016.63 1017.41 1018.16 1018.87 1019.50 1020.03 1020.47 1020.83 1021.11 1021.33 1021.53 1021.71 1021.88 1022.06 1022.22 1022.37 1022.49 1022.58
1016.65 1016.69 1016.69 1016.64 1016.54 1016.38 1016.16 1015.87 1015.53 1015.15 1014.74 1014.31 1013.91 1013.53 1013.20 1012.93 1012.73 1012.61 1012.58 1012.65 1012.84 1013.15 1013.58 1014.12 1014.77 1015.50 1016.28 1017.08 1017.86 1018.59 1019.24 1019.80 1020.28 1020.66 1020.98 1021.25 1021.48 1021.71 1021.92 1022.13 1022.33 1022.51 1022.67 1022.80
1016.53 1016.56 1016.55 1016.49 1016.38 1016.21 1015.98 1015.70 1015.36 1014.99 1014.58 1014.17 1013.76 1013.38 1013.03 1012.74 1012.52 1012.38 1012.33 1012.39 1012.58 1012.88 1013.31 1013.86 1014.51 1015.23 1016.01 1016.80 1017.57 1018.30 1018.95 1019.53 1020.02 1020.44 1020.79 1021.10 1021.39 1021.66 1021.92 1022.17 1022.42 1022.64 1022.84 1023.00
1016.29 1016.32 1016.31 1016.26 1016.14 1015.98 1015.76 1015.49 1015.18 1014.83 1014.46 1014.08 1013.70 1013.33 1013.00 1012.72 1012.51 1012.37 1012.33 1012.39 1012.57 1012.87 1013.29 1013.82 1014.45 1015.14 1015.88 1016.63 1017.37 1018.06 1018.69 1019.26 1019.75 1020.19 1020.57 1020.92 1021.26 1021.58 1021.89 1022.19 1022.47 1022.73 1022.95 1023.14
1016.00 1016.04 1016.03 1015.98 1015.87 1015.71 1015.51 1015.27 1014.99 1014.69 1014.37 1014.04 1013.71 1013.40 1013.11 1012.87 1012.69 1012.58 1012.56 1012.63 1012.82 1013.11 1013.51 1014.01 1014.59 1015.23 1015.91 1016.59 1017.26 1017.90 1018.49 1019.02 1019.51 1019.95 1020.35 1020.74 1021.11 1021.47 1021.82 1022.15 1022.47 1022.75 1022.99 1023.18
1015.79 1015.82 1015.80 1015.73 1015.61 1015.46 1015.27 1015.05 1014.81 1014.56 1014.30 1014.04 1013.78 1013.54 1013.33 1013.15 1013.03 1012.97 1012.98 1013.08 1013.27 1013.55 1013.92 1014.38 1014.89 1015.46 1016.05 1016.65 1017.24 1017.80 1018.33 1018.83 1019.29 1019.72 1020.14 1020.54 1020.94 1021.32 1021.70 1022.05 1022.38 1022.67 1022.91 1023.10
1015.75 1015.75 1015.69 1015.59 1015.45 1015.28 1015.09 1014.88 1014.67 1014.46 1014.26 1014.07 1013.89 1013.73 1013.59 1013.49 1013.43 1013.43 1013.48 1013.61 1013.81 1014.08 1014.41 1014.81 1015.26 1015.75 1016.25 1016.76 1017.26 1017.74 1018.21 1018.66 1019.09 1019.51 1019.92 1020.33 1020.73 1021.13 1021.51 1021.86 1022.18 1022.46 1022.69 1022.86
1015.99 1015.93 1015.81 1015.65 1015.46 1015.25 1015.03 1014.81 1014.61 1014.42 1014.26 1014.12 1014.00 1013.92 1013.86 1013.83 1013.83 1013.88 1013.98 1014.12 1014.32 1014.57 1014.87 1015.21 1015.58 1015.99 1016.40 1016.82 1017.24 1017.66 1018.07 1018.47 1018.87 1019.27 1019.67 1020.07 1020.47 1020.86 1021.23 1021.57 1021.87 1022.12 1022.32 1022.47
1016.51 1016.38 1016.18 1015.95 1015.68 1015.40 1015.13 1014.88 1014.65 1014.46 1014.31 1014.20 1014.13 1014.09 1014.09 1014.11 1014.16 1014.25 1014.37 1014.52 1014.71 1014.93 1015.18 1015.46 1015.77 1016.09 1016.43 1016.78 1017.13 1017.49 1017.85 1018.21 1018.59 1018.97 1019.36 1019.74 1020.13 1020.49 1020.83 1021.14 1021.41 1021.63 1021.81 1021.95
1017.29 1017.07 1016.79 1016.46 1016.11 1015.75 1015.41 1015.10 1014.83 1014.61 1014.45 1014.34 1014.28 1014.26 1014.28 1014.33 1014.41 1014.50 1014.62 1014.76 1014.93 1015.11 1015.31 1015.53 1015.77 1016.03 1016.30 1016.58 1016.88 1017.19 1017.52 1017.86 1018.21 1018.58 1018.95 1019.31 1019.67 1020.01 1020.32 1020.60 1020.83 1021.02 1021.18 1021.30
1018.19 1017.90 1017.55 1017.14 1016.71 1016.27 1015.85 1015.47 1015.14 1014.88 1014.68 1014.55 1014.48 1014.46 1014.47 1014.52 1014.59 1014.67 1014.77 1014.88 1015.00 1015.13 1015.27 1015.43 1015.60 1015.79 1016.00 1016.23 1016.49 1016.76 1017.06 1017.38 1017.72 1018.07 1018.42 1018.77 1019.11 1019.41 1019.69 1019.93 1020.14 1020.31 1020.44 1020.56
1019.08 1018.75 1018.34 1017.88 1017.38 1016.88 1016.39 1015.95 1015.57 1015.26 1015.03 1014.86 1014.76 1014.71 1014.71 1014.73 1014.77 1014.83 1014.88 1014.95 1015.01 1015.07 1015.15 1015.23 1015.33 1015.46 1015.61 1015.79 1016.00 1016.24 1016.52 1016.82 1017.14 1017.47 1017.81 1018.14 1018.44 1018.72 1018.97 1019.19 1019.37 1019.52 1019.66 1019.78
1019.82 1019.48 1019.05 1018.56 1018.04 1017.50 1016.98 1016.50 1016.08 1015.73 1015.46 1015.26 1015.13 1015.06 1015.03 1015.02 1015.03 1015.03 1015.04 1015.04 1015.04 1015.03 1015.03 1015.03 1015.06 1015.11 1015.19 1015.32 1015.48 1015.69 1015.93 1016.21 1016.51 1016.82 1017.13 1017.43 1017.72 1017.97 1018.20 1018.39 1018.56 1018.70 1018.84 1018.98
1020.32 1020.00 1019.59 1019.11 1018.58 1018.04 1017.51 1017.03 1016.59 1016.23 1015.95 1015.74 1015.59 1015.50 1015.44 1015.41 1015.38 1015.34 1015.30 1015.24 1015.16 1015.08 1014.99 1014.92 1014.86 1014.83 1014.85 1014.91 1015.02 1015.17 1015.37 1015.61 1015.88 1016.16 1016.44 1016.71 1016.97 1017.20 1017.41 1017.59 1017.74 1017.89 1018.03 1018.18
1020.55 1020.27 1019.90 1019.46 1018.96 1018.45 1017.94 1017.47 1017.06 1016.71 1016.43 1016.23 1016.08 1015.99 1015.92 1015.87 1015.82 1015.75 1015.66 1015.55 1015.41 1015.26 1015.10 1014.94 1014.80 1014.69 1014.63 1014.61 1014.65 1014.74 1014.89 1015.08 1015.30 1015.54 1015.78 1016.02 1016.25 1016.46 1016.65 1016.81 1016.96 1017.10 1017.25 1017.41
1020.53 1020.30 1019.99 1019.59 1019.15 1018.67 1018.21 1017.78 1017.40 1017.09 1016.84 1016.66 1016.53 1016.45 1016.39 1016.33 1016.27 1016.19 1016.07 1015.92 1015.74 1015.53 1015.31 1015.08 1014.87 1014.69 1014.54 1014.45 1014.41 1014.44 1014.51 1014.64 1014.80 1014.99 1015.19 1015.40 1015.59 1015.78 1015.94 1016.09 1016.23 1016.37 1016.51 1016.67
1020.33 1020.15 1019.88 1019.53 1019.13 1018.71 1018.30 1017.91 1017.58 1017.30 1017.09 1016.94 1016.84 1016.78 1016.74 1016.70 1016.64 1016.56 1016.44 1016.28 1016.07 1015.83 1015.57 1015.29 1015.02 1014.78 1014.56 1014.40 1014.29 1014.24 1014.25 1014.31 1014.41 1014.54 1014.70 1014.86 1015.02 1015.17 1015.31 1015.45 1015.57 1015.70 1015.83 1015.98
1020.05 1019.89 1019.64 1019.32 1018.96 1018.57 1018.20 1017.85 1017.55 1017.31 1017.13 1017.01 1016.94 1016.90 1016.88 1016.87 1016.83 1016.76 1016.65 1016.50 1016.29 1016.05 1015.77 1015.48 1015.18 1014.90 1014.64 1014.42 1014.25 1014.14 1014.08 1014.08 1014.12 1014.20 1014.30 1014.41 1014.53 1014.65 1014.77 1014.88 1014.99 1015.10 1015.21 1015.34
1019.77 1019.59 1019.34 1019.02 1018.67 1018.30 1017.94 1017.61 1017.33 1017.11 1016.95 1016.84 1016.79 1016.77 1016.77 1016.77 1016.75 1016.71 1016.63 1016.50 1016.32 1016.10 1015.84 1015.56 1015.27 1014.97 1014.70 1014.45 1014.25 1014.09 1013.98 1013.92 1013.91 1013.93 1013.98 1014.05 1014.13 1014.22 1014.30 1014.39 1014.47 1014.55 1014.65 1014.75
1019.51 1019.30 1019.02 1018.68 1018.31 1017.94 1017.58 1017.25 1016.96 1016.74 1016.57 1016.47 1016.41 1016.39 1016.40 1016.41 1016.42 1016.40 1016.35 1016.26 1016.13 1015.95 1015.74 1015.50 1015.23 1014.97 1014.70 1014.46 1014.23 1014.05 1013.91 1013.81 1013.75 1013.72 1013.72 1013.75 1013.79 1013.84 1013.90 1013.95 1014.01 1014.07 1014.15 1014.23
1019.29 1019.03 1018.70 1018.33 1017.94 1017.54 1017.16 1016.81 1016.51 1016.27 1016.08 1015.95 1015.88 1015.85 1015.84 1015.86 1015.87 1015.88 1015.86 1015.82 1015.74 1015.63 1015.48 1015.30 1015.09 1014.87 1014.64 1014.42 1014.20 1014.02 1013.85 1013.72 1013.62 1013.56 1013.52 1013.50 1013.50 1013.52 1013.54 1013.57 1013.61 1013.65 1013.70 1013.76
1019.08 1018.76 1018.38 1017.98 1017.55 1017.13 1016.72 1016.35 1016.03 1015.76 1015.55 1015.39 1015.29 1015.23 1015.20 1015.21 1015.22 1015.24 1015.26 1015.26 1015.24 1015.19 1015.12 1015.01 1014.87 1014.71 1014.54 1014.35 1014.16 1013.98 1013.81 1013.66 1013.53 1013.43 1013.35 1013.30 1013.26 1013.24 1013.23 1013.24 1013.25 1013.28 1013.31 1013.36
1018.82 1018.45 1018.04 1017.61 1017.16 1016.72 1016.31 1015.93 1015.59 1015.30 1015.06 1014.87 1014.73 1014.64 1014.59 1014.57 1014.58 1014.61 1014.65 1014.69 1014.72 1014.74 1014.73 1014.70 1014.63 1014.54 1014.42 1014.28 1014.12 1013.95 1013.78 1013.62 1013.47 1013.33 1013.22 1013.12 1013.05 1013.00 1012.97 1012.95 1012.94 1012.95 1012.98 1013.02
1018.47 1018.07 1017.64 1017.20 1016.76 1016.33 1015.92 1015.54 1015.20 1014.90 1014.64 1014.43 1014.27 1014.15 1014.08 1014.04 1014.04 1014.07 1014.13 1014.20 1014.27 1014.34 1014.39 1014.43 1014.43 1014.39 1014.33 1014.23 1014.10 1013.94 1013.77 1013.60 1013.43 1013.26 1013.11 1012.98 1012.88 1012.80 1012.74 1012.70 1012.68 1012.68 1012.70 1012.74
1017.99 1017.58 1017.16 1016.74 1016.32 1015.91 1015.53 1015.18 1014.85 1014.56 1014.31 1014.09 1013.92 1013.78 1013.69 1013.64 1013.63 1013.66 1013.73 1013.82 1013.92 1014.03 1014.13 1014.21 1014.27 1014.28 1014.26 1014.19 1014.09 1013.94 1013.78 1013.59 1013.40 1013.21 1013.03 1012.87 1012.74 1012.63 1012.55 1012.49 1012.46 1012.45 1012.47 1012.51
1017.36 1016.97 1016.58 1016.19 1015.81 1015.45 1015.12 1014.80 1014.51 1014.25 1014.02 1013.81 1013.64 1013.50 1013.40 1013.34 1013.33 1013.36 1013.43 1013.53 1013.66 1013.80 1013.93 1014.05 1014.14 1014.19 1014.20 1014.16 1014.07 1013.94 1013.77 1013.57 1013.37 1013.16 1012.95 1012.77 1012.61 1012.48 1012.38 1012.31 1012.27 1012.26 1012.27 1012.30
Thickness
5517 5519 5521 5523 5527 5528 5527 5535 5538 5549 5553 5560 5562 5562 5564 5565 5565 5563 5562 5560 5559 5558 5557 5552 5548 5544 5541 5538 5534 5532 5530 5529 5527 5525 5524 5523 5522 5522 5522 5522 5522 5522 5523 5523
5507 5512 5515 5518 5523 5525 5527 5531 5536 5540 5546 5555 5556 5555 5556 5559 5560 5559 5560 5558 5556 5554 5552 5547 5544 5539 5534 5530 5526 5523 5521 5519 5516 5514 5513 5511 5510 5510 5509 5509 5509 5509 5509 5510
5512 5507 5511 5520 5528 5526 5527 5530 5532 5535 5544 5549 5548 5548 5551 5554 5555 5556 5557 5556 5554 5552 5549 5544 5540 5535 5529 5524 5518 5514 5512 5509 5507 5505 5503 5501 5500 5499 5498 5497 5497 5496 5496 5497
5506 5502 5503 5525 5519 5521 5523 5526 5528 5530 5535 5538 5540 5543 5545 5548 5550 5553 5553 5552 5551 5549 5545 5540 5534 5528 5522 5515 5510 5507 5504 5501 5498 5496 5494 5492 5490 5488 5487 5486 5485 5484 5484 5485
5502 5505 5514 5518 5515 5514 5516 5522 5523 5524 5528 5531 5532 5535 5543 5542 5543 5545 5547 5547 5547 5544 5540 5534 5527 5520 5513 5507 5503 5499 5496 5493 5490 5488 5485 5483 5481 5479 5477 5476 5474 5474 5473 5473
5495 5498 5505 5514 5510 5508 5510 5517 5518 5517 5520 5523 5523 5532 5539 5533 5532 5534 5535 5535 5534 5532 5528 5523 5517 5511 5506 5501 5497 5494 5490 5486 5483 5480 5478 5475 5473 5470 5468 5467 5465 5464 5463 5463
5491 5494 5505 5506 5502 5501 5507 5512 5510 5510 5512 5514 5517 5522 5522 5521 5521 5520 5520 5520 5519 5518 5516 5512 5507 5502 5499 5495 5491 5488 5483 5479 5475 5473 5470 5468 5465 5462 5460 5459 5457 5456 5455 5455
5489 5487 5495 5496 5495 5498 5500 5500 5500 5503 5504 5506 5508 5509 5510 5510 5510 5509 5508 5507 5506 5505 5503 5499 5496 5494 5492 5487 5484 5479 5475 5472 5469 5466 5464 5461 5458 5456 5454 5452 5451 5450 5450 5449
5488 5490 5487 5485 5487 5486 5486 5489 5492 5494 5496 5497 5500 5502 5502 5502 5501 5500 5498 5497 5495 5495 5492 5489 5487 5486 5484 5480 5476 5472 5469 5466 5463 5460 5458 5455 5453 5451 5448 5447 5446 5446 5445 5445
5473 5478 5476 5476 5476 5475 5476 5478 5481 5483 5486 5488 5492 5494 5494 5494 5493 5491 5489 5488 5486 5485 5484 5482 5479 5478 5477 5474 5470 5467 5464 5462 5459 5456 5453 5451 5448 5447 5445 5443 5442 5442 5442 5441
5460 5462 5465 5468 5465 5464 5466 5469 5472 5474 5476 5478 5482 5484 5485 5485 5485 5483 5481 5480 5479 5478 5478 5476 5473 5471 5470 5467 5465 5462 5460 5458 5455 5452 5450 5447 5445 5444 5443 5442 5441 5440 5440 5438
5449 5446 5446 5453 5453 5453 5455 5458 5461 5463 5466 5468 5469 5472 5473 5474 5474 5473 5473 5472 5471 5470 5470 5469 5468 5466 5464 5462 5460 5458 5456 5454 5451 5449 5446 5444 5442 5440 5438 5437 5435 5434 5433 5431
5427 5429 5432 5438 5440 5442 5444 5446 5449 5451 5454 5456 5457 5459 5461 5462 5461 5462 5462 5462 5462 5463 5463 5463 5462 5461 5460 5457 5455 5454 5453 5450 5448 5445 5443 5441 5439 5437 5436 5434 5431 5430 5428 5427
5417 5418 5424 5428 5428 5429 5432 5435 5438 5440 5442 5444 5445 5446 5448 5449 5450 5451 5452 5452 5453 5453 5454 5455 5455 5455 5454 5452 5450 5449 5448 5446 5444 5442 5440 5438 5436 5434 5433 5432 5430 5428 5426 5424
5409 5408 5411 5414 5416 5418 5421 5425 5428 5431 5432 5432 5433 5434 5436 5437 5439 5440 5440 5441 5442 5444 5445 5446 5447 5447 5446 5445 5444 5443 5442 5441 5439 5437 5435 5433 5431 5429 5428 5426 5426 5425 5423 5420
5399 5401 5404 5406 5407 5409 5411 5414 5417 5419 5420 5421 5422 5422 5423 5425 5427 5428 5429 5430 5433 5435 5435 5435 5436 5437 5437 5437 5437 5437 5437 5435 5433 5431 5429 5427 5425 5424 5423 5421 5421 5420 5418 5416
5391 5395 5395 5396 5398 5400 5401 5402 5404 5406 5408 5409 5410 5411 5412 5414 5416 5418 5418 5419 5421 5422 5423 5424 5425 5426 5427 5428 5429 5430 5430 5429 5427 5425 5424 5423 5421 5419 5418 5417 5416 5415 5415 5412
5384 5384 5385 5385 5387 5389 5391 5391 5392 5393 5395 5396 5398 5400 5402 5403 5405 5407 5407 5409 5411 5412 5412 5413 5414 5416 5417 5418 5420 5421 5421 5421 5420 5420 5419 5417 5416 5414 5412 5411 5411 5409 5409 5406
5379 5378 5378 5378 5378 5379 5380 5380 5381 5382 5383 5384 5386 5388 5390 5391 5393 5395 5396 5398 5401 5403 5403 5403 5404 5406 5408 5409 5410 5411 5412 5413 5412 5412 5411 5411 5410 5408 5406 5405 5404 5403 5401 5399
5372 5370 5370 5369 5369 5368 5369 5369 5369 5371 5372 5373 5375 5377 5379 5381 5382 5383 5386 5388 5390 5391 5391 5393 5395 5397 5398 5400 5401 5402 5403 5404 5404 5405 5404 5403 5403 5402 5400 5399 5398 5396 5394 5393
5364 5362 5361 5360 5359 5359 5359 5359 5359 5361 5362 5362 5364 5366 5368 5370 5371 5373 5376 5380 5380 5380 5381 5384 5386 5388 5389 5392 5393 5394 5395 5396 5396 5396 5396 5395 5395 5394 5393 5392 5391 5389 5388 5386
5356 5354 5352 5351 5350 5351 5350 5350 5350 5351 5352 5353 5354 5356 5358 5360 5362 5364 5366 5368 5370 5370 5372 5375 5377 5379 5381 5384 5385 5386 5387 5388 5388 5388 5388 5388 5388 5387 5386 5385 5384 5383 5381 5380
5348 5345 5343 5341 5341 5341 5340 5341 5341 5342 5343 5344 5345 5347 5349 5351 5353 5355 5359 5360 5360 5362 5364 5367 5368 5371 5373 5375 5376 5378 5379 5379 5380 5381 5381 5381 5380 5380 5379 5378 5377 5376 5375 5373
5337 5334 5332 5330 5328 5328 5330 5333 5332 5332 5333 5334 5336 5338 5339 5341 5345 5347 5348 5350 5352 5354 5356 5358 5360 5363 5364 5366 5367 5369 5370 5371 5372 5372 5373 5373 5373 5372 5372 5371 5370 5369 5368 5366
5326 5323 5320 5317 5317 5319 5320 5321 5321 5322 5323 5326 5328 5330 5331 5333 5336 5339 5340 5341 5343 5346 5348 5350 5352 5354 5355 5357 5358 5359 5361 5362 5363 5364 5365 5365 5365 5364 5364 5364 5363 5362 5361 5360
5314 5312 5311 5309 5308 5308 5308 5309 5310 5313 5315 5318 5321 5323 5325 5326 5328 5329 5331 5333 5335 5338 5340 5342 5343 5345 5347 5348 5349 5351 5352 5353 5354 5355 5355 5356 5356 5356 5356 5356 5355 5355 5354 5353
5302 5301 5299 5299 5300 5299 5298 5299 5301 5304 5306 5308 5312 5315 5317 5318 5320 5322 5324 5325 5328 5330 5332 5333 5335 5337 5339 5340 5341 5343 5344 5345 5346 5346 5347 5347 5348 5348 5348 5348 5348 5347 5346 5345